Location: *
(30.4476°N, 114.3798°E)
Time: 00:51:48
(UTC+00:00)

Cosmos 1300 Rocket - Pass Details

Date: 09 April 2020
Orbit: 603 x 625 km, 82.5° (Epoch: 27 May)

Event Time Altitude Azimuth Distance (km) Brightness Sun altitude
Rises 20:08:57 0° 351° (N) 2,858 7.2 -23.8°
Reaches altitude 10° 20:11:10 10° 349° (NNW) 1,953 6.3 -23.4°
Enters shadow 20:15:12 68° 294° (WNW) 655 3.4 -22.6°
